Virginia Beach, VA

5:54 PM EDT on August 24, 2016 (GMT -0400)
Oceana Naval Air Station

Weather History for KNTU - December, 2012

Change the Weather History Date:

Saturday, December 29, 2012

  Actual Average Record
Temperature  
Mean Temperature 44 °F -  
Max Temperature 48 °F 48 °F 80 °F (2015)
Min Temperature 39 °F 31 °F 17 °F (2010)
Degree Days  
Heating Degree Days 22    
Moisture  
Dew Point 40 °F    
Average Humidity 85    
Maximum Humidity 96    
Minimum Humidity 65    
Precipitation  
Precipitation 0.48 in - - ()
Sea Level Pressure  
Sea Level Pressure 29.74 in    
Wind  
Wind Speed 6 mph (WNW)    
Max Wind Speed 24 mph    
Max Gust Speed 29 mph    
Visibility 8 miles    
Events Rain    
Averages and records for this station are not official NWS values.
T = Trace of Precipitation, MM = Missing Value Source: NWS Daily Summary

Daily Weather History Graph

Daily Weather History Graph

Search for Another Location

Airport or City:

Trip Planner

Search our weather history database for the weather conditions in past years. The results will help you decide how hot, cold, wet, or windy it might be!

Date:

Astronomy

Dec. 29, 2012 Rise Set
Actual Time 7:16 AM EST 4:56 PM EST
Civil Twilight 6:47 AM EST 5:25 PM EST
Nautical Twilight 6:15 AM EST 5:57 PM EST
Astronomical Twilight 5:43 AM EST 6:29 PM EST
Moon 6:24 PM EST (12/29) 7:50 AM EST (12/29)
Length of Visible Light 10h 38m
Length of Day
9h 40m
Full, 98% of the Moon is Illuminated
Dec 29
Full
Jan 4
Last Quarter
Jan 11
New
Jan 18
First Quarter
Jan 26
Full

Hourly Weather History & Observations

Time (EST) Temp. Windchill Dew Point Humidity Pressure Visibility Wind Dir Wind Speed Gust Speed Precip Events Conditions
12:56 AM 39.0 °F - 35.1 °F 86% 30.04 in 10.0 mi Calm Calm - N/A   Overcast
1:56 AM 39.0 °F - 36.0 °F 89% 30.01 in 9.0 mi Calm Calm - N/A   Overcast
2:56 AM 41.0 °F - 35.1 °F 79% 30.00 in 10.0 mi Calm Calm - N/A   Overcast
3:24 AM 41.0 °F - 35.6 °F 81% 29.98 in 10.0 mi Calm Calm - 0.00 in Rain Light Rain
3:56 AM 41.0 °F 39.0 °F 37.0 °F 86% 29.95 in 10.0 mi NE 3.5 mph - 0.00 in   Overcast
4:56 AM 42.1 °F - 39.0 °F 89% 29.94 in 10.0 mi Calm Calm - N/A   Overcast
5:08 AM 42.8 °F - 39.2 °F 87% 29.92 in 9.0 mi Calm Calm - 0.00 in Rain Light Rain
5:56 AM 44.1 °F 41.5 °F 39.0 °F 82% 29.89 in 10.0 mi East 4.6 mph - 0.02 in Rain Light Rain
6:15 AM 42.8 °F 40.1 °F 39.2 °F 87% 29.87 in 10.0 mi East 4.6 mph - 0.02 in Rain Light Rain
6:38 AM 42.8 °F 38.6 °F 39.2 °F 87% 29.86 in 10.0 mi East 6.9 mph - 0.04 in Rain Light Rain
6:56 AM 44.1 °F 40.1 °F 39.9 °F 85% 29.86 in 9.0 mi ESE 6.9 mph - 0.05 in Rain Light Rain
7:14 AM 44.6 °F 39.7 °F 41.0 °F 87% 29.83 in 7.0 mi ESE 9.2 mph - 0.03 in Rain Light Rain
7:29 AM - - - N/A% - - North - - N/A   Unknown
7:44 AM 44.6 °F 38.8 °F 42.8 °F 93% 29.77 in 5.0 mi ESE 11.5 mph - 0.07 in Rain Light Rain
7:56 AM 45.0 °F 39.7 °F 42.1 °F 90% 29.77 in 8.0 mi East 10.4 mph - 0.08 in Rain Light Rain
8:56 AM 46.9 °F - 44.1 °F 90% 29.68 in 4.0 mi SE 24.2 mph 28.8 mph 0.07 in Rain Rain
9:56 AM 48.0 °F - 46.9 °F 96% 29.67 in 6.0 mi SE 5.8 mph - 0.07 in Rain Light Rain
10:00 AM - - - N/A% - - North - - N/A   Unknown
10:17 AM 48.2 °F - 46.4 °F 93% 29.65 in 2.5 mi Calm Calm - 0.03 in Rain Light Rain
10:56 AM 48.9 °F - 46.9 °F 93% 29.62 in 3.0 mi NW 5.8 mph - 0.05 in Rain Light Rain
11:56 AM 48.0 °F - 46.0 °F 93% 29.60 in 2.0 mi WNW 11.5 mph 23.0 mph 0.09 in Rain Rain
12:44 PM 44.6 °F 36.1 °F 42.8 °F 93% 29.59 in 2.0 mi NW 21.9 mph 27.6 mph 0.04 in Rain Light Rain
12:56 PM 45.0 °F 39.3 °F 43.0 °F 93% 29.58 in 2.0 mi NW 11.5 mph - 0.05 in Rain Light Rain
1:23 PM 46.4 °F 41.1 °F 44.6 °F 93% 29.55 in 5.0 mi NW 11.5 mph - 0.00 in   Overcast
1:56 PM 46.9 °F - 45.0 °F 93% 29.55 in 10.0 mi NW 16.1 mph - 0.00 in   Overcast
2:35 PM 48.2 °F - 44.6 °F 87% 29.54 in 10.0 mi NW 8.1 mph 18.4 mph N/A   Overcast
2:56 PM 46.9 °F - 43.0 °F 86% 29.55 in 10.0 mi WNW 16.1 mph 24.2 mph N/A   Mostly Cloudy
3:12 PM 46.4 °F 40.7 °F 41.0 °F 81% 29.56 in 10.0 mi WNW 12.7 mph 25.3 mph N/A   Mostly Cloudy
3:32 PM 44.6 °F 37.2 °F 41.0 °F 87% 29.56 in 10.0 mi WNW 17.3 mph 26.5 mph N/A   Overcast
3:56 PM 44.1 °F 35.9 °F 39.9 °F 85% 29.58 in 10.0 mi WNW 19.6 mph 25.3 mph N/A   Overcast
4:40 PM 44.6 °F 38.4 °F 39.2 °F 81% 29.59 in 10.0 mi WNW 12.7 mph 20.7 mph N/A   Mostly Cloudy
4:56 PM 43.0 °F 36.8 °F 39.0 °F 86% 29.60 in 10.0 mi West 11.5 mph - N/A   Scattered Clouds
5:56 PM 43.0 °F 37.7 °F 37.9 °F 82% 29.64 in 10.0 mi West 9.2 mph - N/A   Clear
6:56 PM 43.0 °F 37.7 °F 37.9 °F 82% 29.67 in 10.0 mi West 9.2 mph - N/A   Clear
7:56 PM 41.0 °F 36.4 °F 37.9 °F 89% 29.69 in 10.0 mi WSW 6.9 mph - N/A   Clear
8:56 PM 44.1 °F 37.4 °F 34.0 °F 68% 29.71 in 10.0 mi West 13.8 mph - N/A   Partly Cloudy
9:56 PM 43.0 °F 36.0 °F 32.0 °F 65% 29.75 in 10.0 mi West 13.8 mph - N/A   Scattered Clouds
10:56 PM 43.0 °F 36.8 °F 32.0 °F 65% 29.79 in 10.0 mi WNW 11.5 mph - N/A   Mostly Cloudy
11:56 PM 41.0 °F 34.7 °F 32.0 °F 70% 29.82 in 10.0 mi WNW 10.4 mph - N/A   Scattered Clouds